Regional Weather Roundup
Issued by NWS

Home | Current Version | Previous Version | Graphics & Text | Print | Product List | Glossary On
Versions: 1 2 3 4 5 6 7 8 9 10 11 12 13 14 15 16 17 18 19 20 21 22 23 24 25 26 27 28 29 30 31 32 33 34 35 36 37 38 39 40 41 42 43 44 45 46 47 48 49 50
000
ASUS43 KLMK 030010
RWRKY
KENTUCKY REGIONAL WEATHER ROUNDUP
NATIONAL WEATHER SERVICE LOUISVILLE KY
800 PM EDT WED SEP 02 2015

NOTE "FAIR" INDICATES FEW OR NO CLOUDS BELOW 12,000 FEET
WITH NO SIGNIFICANT WEATHER AND/OR OBSTRUCTIONS TO VISIBILITY.

KYZ001>023-026-027-061>063-070>075-030100-
WESTERN AND SOUTH CENTRAL KENTUCKY

CITY           SKY/WX    TMP DP  RH WIND       PRES   REMARKS
PADUCAH        CLEAR     82  69  64 S3        29.98F
HENDERSON      CLEAR     82  70  65 SE3       29.98F
OWENSBORO      CLEAR     85  70  60 S5        30.00S
HOPKINSVILLE   PTCLDY    83  69  62 NE2       30.00S
BOWLING GREEN  CLEAR     85  67  54 NE5       30.01F
GLASGOW        PTCLDY    81  67  62 N3        30.01F
$$

KYZ024-025-028>034-038-045-046-053-030100-
NORTH CENTRAL KENTUCKY

CITY           SKY/WX    TMP DP  RH WIND       PRES   REMARKS
LOUISVILLE/SDF PTCLDY    87  66  49 SW7       30.00S
LOUISVILLE/LOU MOCLDY    88  67  49 CALM      30.01F HX  91
FORT KNOX      CLEAR     79  71  77 SW1       30.01S
$$

KYZ035>037-039>044-047>052-055>060-089>105-030100-
NORTHEAST KENTUCKY

CITY           SKY/WX    TMP DP  RH WIND       PRES   REMARKS
LEXINGTON      CLEAR     83  66  56 NW3       30.04R
COVINGTON      PTCLDY    83  68  60 W3        30.02S
FRANKFORT      CLEAR     82  66  58 CALM      30.02S
$$

KYZ054-064>069-076>088-106>120-030100-
SOUTHEAST KENTUCKY

CITY           SKY/WX    TMP DP  RH WIND       PRES   REMARKS
JACKSON        PTCLDY    79  67  66 CALM      30.06S
LONDON         CLEAR     83  61  47 N3        30.04F
SOMERSET       CLEAR     81  64  57 CALM      30.04F
MIDDLESBORO    PTCLDY    77  69  75 CALM      30.05S
MONTICELLO     PTCLDY    78  71  79 CALM      30.06F
$$



USA.gov is the U.S. government's official web portal to all federal, state and local government web resources and services.